STARLINK-31858, 59658

Orbit data source: Space-Track

STARLINK-31858, 59658 is a payload satellite owned by SpaceX/Seattle (US) in LEO that was launched on Mon, 06 May 2024 UTC via an FALCON 9 launch vehicle from the Air Force Eastern Test Range (AFETR). Payload-class satellites include a variety of spacecraft equipped with specific instruments for various scientific and technological missions. These include communications satellites like Starlink; space stations such as the ISS; scientific satellites like the Hubble; Earth observation satellites from companies like Planet Labs, Umbra, and HawkEye 360; GPS; miniature CubeSats for education and research; and military/defense satellites.

Loading next visibility...
Identifier
59658, 2024-084E
Orbit
LEO
Country
Flag of USUS
Related business
Manufacturer
SpaceX/Seattle
Mission
Operational Commercial Communications
Bus & Motor
STARLINK V2M, Unknown motor
Mass
730 kg wet, ~700 kg dry
Launch date (UTC)
2024-05-06 (2 years ago)
Launch vehicle
FALCON 9
Launch site
Air Force Eastern Test Range (AFETR)
Object type
Payload
Rocket body
Debris
Shape & HBR
Box + 2 Pan, 17.7 m
Radar Cross Section
33.884 m², Large (>1 m²)

Expand to show TLE details & history
Last TLE update: 15 hours ago

TLE from 15 hours ago
0 STARLINK-31858
1 59658U 24084E   26073.11861451  .00000475  00000-0  26777-4 0  9995
2 59658  43.0026  16.5152 0001086 271.8562  88.2165 15.27578687105053
Epoch: 2026-03-14T02:50Z
TLE epoch observation values (Epoch: 2026-03-14T02:50:48.293Z)
Latitude
-0.00005°
Longitude
162.06955°
Altitude
482.806 km
Speed
7.626 km/s
True Right ascension
01h 06m 03s
True Declination
0° 00' 00"
Sunlit
Object was in daylight at epoch
Visualization orbit readout
Latitude
Unknown
Longitude
Unknown
Altitude
Unknown
Speed
Unknown
Apparent Right ascension
Unknown
Apparent Declination
Unknown
Sunlit
N/A
Visualization observer readout
Local Sidereal Time
22:38:49
Azimuth
Unknown
Elevation
Unknown
Doppler factor
Unknown
Orbital elements
Apogee altitude
485.743 km
Perigee altitude
484.252 km
Semi-major axis
6,863.135 km
Eccentricity
0.00011
Inclination
43.0026°
RAAN
16.5152°
Arg. of periapsis
271.8562°
True anomaly
88.22894°
Mean anomaly
88.2165°
Eccentric anomaly
88.22272°
Mean motion
3.81733 °/min
Orbital period
94.31 mins
BSTAR
0.000026777
Loading maneuver chart data...
Computing Atmospheric mass density...
Loading historical data...
Loading historical data...
Loading historical data...
Loading historical data...
Loading historical data...
Loading historical data...
Loading historical data...

Documentation

Showing up to 5 results
|